Regional Weather Roundup
Issued by NWS Cleveland, OH

Home | Current Version | Previous Version | Graphics & Text | Print | Product List | Glossary On
Versions: 1 2 3 4 5 6 7 8 9 10 11 12 13 14 15 16 17 18 19 20 21 22 23 24 25 26 27 28 29 30 31 32 33 34 35 36 37 38 39 40 41 42 43 44 45 46 47 48 49 50
000
ASUS41 KCLE 100402
RWRCLE
OHIO REGIONAL WEATHER ROUNDUP
NATIONAL WEATHER SERVICE CLEVELAND, OH
1200 AM EDT THU JUL 10 2014

NOTE: "FAIR" INDICATES FEW OR NO CLOUDS BELOW 12,000 FEET WITH NO
SIGNIFICANT WEATHER AND/OR OBSTRUCTIONS TO VISIBILITY.

OHZ001>008-015>018-024>027-034-035-043-044-100500-
   NORTHWEST OHIO

CITY           SKY/WX    TMP DP  RH WIND       PRES   REMARKS
DEFIANCE       CLEAR     62  55  77 CALM      30.04R
FINDLAY        CLEAR     66  57  72 NW5       30.02R
TOLEDO EXPRESS CLEAR     65  57  75 NW3       30.03R
TOLEDO EXEC    CLEAR     68  56  65 CALM      30.03R
LIMA           PTCLDY    67  57  70 N8        30.03R
$$

OHZ009>014-019>023-028>033-038-089-100500-
   NORTHEAST OHIO

CITY           SKY/WX    TMP DP  RH WIND       PRES   REMARKS
CLE-HOPKINS    PTCLDY    65  60  84 E5        30.04S
CLE-LAKEFRONT  CLEAR     66  61  84 E6        30.01R
CUY CO. ARPT   NOT AVBL
LORAIN-ELYRIA  CLEAR     66  61  84 CALM      30.03R
ASHTABULA      CLEAR     58  55  90 CALM      30.05R
AKRON-CANTON   PTCLDY    64  59  83 CALM      30.04R
WOOSTER        PTCLDY    62  59  90 CALM      30.04R
MANSFIELD      PTCLDY    65  63  93 CALM      30.04R
YOUNGSTOWN     MOCLDY    62  60  93 CALM      30.04R
$$

OHZ042-051>053-060>062-070>072-077>081-100500-
  SOUTHWEST OHIO

CITY           SKY/WX    TMP DP  RH WIND       PRES   REMARKS
CINC-COVINGTON PTCLDY    69  60  73 NW5       30.03R
CINC-LUNKEN    CLOUDY    66  63  90 S3        30.02R
HAMILTON       CLEAR     64  62  93 CALM      30.03R
DAYTON         CLEAR     67  59  75 NW3       30.04S
WRIGHT-PAT AFB CLEAR     67  60  76 CALM      30.03R
DAYTON GENERAL CLEAR     71  59  65 N7        30.03R
WILMINGTON     PTCLDY    71  59  65 NW5       30.03R
$$

OHZ036-037-039>041-045>050-054>059-063>069-073>076-082>088-100500-
  CENTRAL AND SOUTHEAST OHIO

CITY           SKY/WX    TMP DP  RH WIND       PRES   REMARKS
COLUMBUS       PTCLDY    71  60  68 N3        30.01R
OSU AIRPORT    CLEAR     68  60  75 N5        30.02R
BOLTON FIELD   CLEAR     67  61  81 W5        30.03R
RICKENBACK AFB CLEAR     69  58  68 S3        30.01R
NEWARK         PTCLDY    65  61  87 CALM      30.01R
MARION         MOCLDY    66  64  93 CALM      30.03R
LANCASTER      CLEAR     64  60  87 CALM      30.02R
ZANESVILLE     PTCLDY    67  60  78 CALM      30.02R
NEW PHILLY     CLOUDY    65  62  90 CALM      30.03R
$$



USA.gov is the U.S. government's official web portal to all federal, state and local government web resources and services.